Tracking 29089 objects as of 12-Jul-2024
HD Live streaming from Space Station
objects crossing your sky now

ATLAS 5 CENTAUR DEB

Track ATLAS 5 CENTAUR DEB now!


NORAD ID: 49359
Int'l Code: 2018-079FL
Perigee: 8,325.1 km
Apogee: 34,591.0 km
Inclination: 12.4 °
Period: 770.0 minutes
Semi major axis: 27829 km
RCS: Unknown
Launch date: October 17, 2018
Source: United States (US)
Launch site: AIR FORCE EASTERN TEST RANGE (AFETR)

Note: This is SATELLITE DEBRIS
Your satellite tracking list
Your tracking list is empty




NASA's NSSDC Master Catalog

Two Line Element Set (TLE):
1 49359U 18079FL  24188.07137742 -.00000175  00000-0  00000-0 0  9993
2 49359  12.4392  87.2902 4719160 217.6524  97.3494  1.87006286 19482
Source of the keplerian elements: AFSPC